Time,TemperatureF,DewpointF,PressureIn,WindDirection,WindDirectionDegrees,WindSpeedMPH,WindSpeedGustMPH,Humidity,HourlyPrecipIn,Conditions,Clouds,dailyrainin,SoftwareType,DateUTC
2013-01-05 00:00:00,21.9,2.4,0.00,SSW,203,0.0,5.4,42,0.00,,SKC,0.00,VWS V14.00,2013-01-05 05:00:00,
2013-01-05 00:01:00,22.6,3.0,0.00,SSW,200,0.0,0.0,42,0.00,,SKC,0.00,VWS V14.00,2013-01-05 05:01:00,
2013-01-05 00:06:00,23.0,3.8,0.00,SSW,197,0.0,0.0,43,0.00,,SKC,0.00,VWS V14.00,2013-01-05 05:06:00,
2013-01-05 00:11:00,23.4,3.7,0.00,SSW,197,0.0,0.0,42,0.00,,SKC,0.00,VWS V14.00,2013-01-05 05:11:00,
2013-01-05 00:16:00,22.8,3.7,0.00,SSW,197,0.0,0.0,43,0.00,,SKC,0.00,VWS V14.00,2013-01-05 05:16:00,
2013-01-05 00:20:00,22.1,3.0,0.00,SSW,197,0.0,0.0,43,0.00,,SKC,0.00,VWS V14.00,2013-01-05 05:20:00,
2013-01-05 00:26:00,21.4,1.9,0.00,SSW,197,0.0,0.0,42,0.00,,SKC,0.00,VWS V14.00,2013-01-05 05:26:00,
2013-01-05 00:30:00,20.8,1.9,0.00,SSW,197,0.0,0.0,43,0.00,,SKC,0.00,VWS V14.00,2013-01-05 05:30:00,
2013-01-05 00:35:00,20.3,1.4,0.00,SSW,197,0.0,0.0,43,0.00,,SKC,0.00,VWS V14.00,2013-01-05 05:35:00,
2013-01-05 00:40:00,20.3,1.4,0.00,SSW,197,0.0,0.0,43,0.00,,SKC,0.00,VWS V14.00,2013-01-05 05:40:00,
2013-01-05 00:45:00,20.1,1.2,0.00,SSW,197,0.0,0.0,43,0.00,,SKC,0.00,VWS V14.00,2013-01-05 05:45:00,
2013-01-05 00:50:00,20.3,1.4,0.00,SSW,197,0.0,0.0,43,0.00,,SKC,0.00,VWS V14.00,2013-01-05 05:50:00,
2013-01-05 00:55:00,20.5,1.5,0.00,SSW,197,0.0,0.0,43,0.00,,SKC,0.00,VWS V14.00,2013-01-05 05:55:00,
2013-01-05 01:00:00,20.5,1.5,0.00,SSW,197,0.0,0.0,43,0.00,,SKC,0.00,VWS V14.00,2013-01-05 06:00:00,
2013-01-05 01:05:00,20.7,1.7,0.00,WSW,245,3.6,3.6,43,0.00,,SKC,0.00,VWS V14.00,2013-01-05 06:05:00,
2013-01-05 01:10:00,21.2,2.7,0.00,WSW,256,2.7,3.6,44,0.00,,SKC,0.00,VWS V14.00,2013-01-05 06:10:00,
2013-01-05 01:15:00,21.2,2.7,0.00,WSW,245,2.2,3.6,44,0.00,,SKC,0.00,VWS V14.00,2013-01-05 06:15:00,
2013-01-05 01:20:00,21.9,2.9,0.00,WSW,245,2.7,3.6,43,0.00,,SKC,0.00,VWS V14.00,2013-01-05 06:20:00,
2013-01-05 01:25:00,21.9,2.9,0.00,WSW,245,0.0,3.6,43,0.00,,SKC,0.00,VWS V14.00,2013-01-05 06:25:00,
2013-01-05 01:30:00,21.9,2.9,0.00,WSW,245,0.0,3.6,43,0.00,,SKC,0.00,VWS V14.00,2013-01-05 06:30:00,
2013-01-05 01:35:00,21.9,2.9,0.00,WSW,245,0.0,3.6,43,0.00,,SKC,0.00,VWS V14.00,2013-01-05 06:35:00,
2013-01-05 01:40:00,22.3,3.2,0.00,WSW,245,0.0,3.6,43,0.00,,SKC,0.00,VWS V14.00,2013-01-05 06:40:00,
2013-01-05 01:45:00,22.1,3.0,0.00,WSW,245,0.0,3.6,43,0.00,,SKC,0.00,VWS V14.00,2013-01-05 06:45:00,
2013-01-05 01:50:00,21.6,2.5,0.00,WSW,245,0.0,3.6,43,0.00,,SKC,0.00,VWS V14.00,2013-01-05 06:50:00,
2013-01-05 01:55:00,21.2,2.2,0.00,WSW,245,0.0,3.6,43,0.00,,SKC,0.00,VWS V14.00,2013-01-05 06:55:00,
2013-01-05 02:00:00,20.8,1.9,0.00,WSW,245,0.0,0.0,43,0.00,,SKC,0.00,VWS V14.00,2013-01-05 07:00:00,
2013-01-05 02:05:00,20.3,1.4,0.00,WSW,245,0.0,0.0,43,0.00,,SKC,0.00,VWS V14.00,2013-01-05 07:05:00,
2013-01-05 02:10:00,20.1,1.2,0.00,WSW,245,0.0,0.0,43,0.00,,SKC,0.00,VWS V14.00,2013-01-05 07:10:00,
2013-01-05 02:15:00,19.9,1.1,0.00,WSW,245,0.0,0.0,43,0.00,,SKC,0.00,VWS V14.00,2013-01-05 07:15:00,
2013-01-05 02:20:00,19.6,0.7,0.00,WSW,245,0.0,0.0,43,0.00,,SKC,0.00,VWS V14.00,2013-01-05 07:20:00,
2013-01-05 02:25:00,19.6,0.7,0.00,WSW,245,0.0,0.0,43,0.00,,SKC,0.00,VWS V14.00,2013-01-05 07:25:00,
2013-01-05 02:30:00,19.6,0.7,0.00,WSW,245,0.0,0.0,43,0.00,,SKC,0.00,VWS V14.00,2013-01-05 07:30:00,
2013-01-05 02:35:00,20.3,1.4,0.00,WSW,245,0.0,0.0,43,0.00,,SKC,0.00,VWS V14.00,2013-01-05 07:35:00,
2013-01-05 02:40:00,20.3,1.4,0.00,WSW,245,0.0,0.0,43,0.00,,SKC,0.00,VWS V14.00,2013-01-05 07:40:00,
2013-01-05 02:45:00,20.5,1.5,0.00,WSW,245,0.0,0.0,43,0.00,,SKC,0.00,VWS V14.00,2013-01-05 07:45:00,
2013-01-05 02:50:00,20.5,1.5,0.00,WSW,245,0.0,0.0,43,0.00,,SKC,0.00,VWS V14.00,2013-01-05 07:50:00,
2013-01-05 02:55:00,21.0,2.0,0.00,WSW,245,0.0,0.0,43,0.00,,SKC,0.00,VWS V14.00,2013-01-05 07:55:00,
2013-01-05 03:00:00,21.0,2.0,0.00,WSW,245,0.0,0.0,43,0.00,,SKC,0.00,VWS V14.00,2013-01-05 08:00:00,
2013-01-05 03:05:00,21.0,2.0,0.00,WSW,245,0.0,0.0,43,0.00,,SKC,0.00,VWS V14.00,2013-01-05 08:05:00,
2013-01-05 03:10:00,20.3,1.4,0.00,WSW,245,0.0,0.0,43,0.00,,SKC,0.00,VWS V14.00,2013-01-05 08:10:00,
2013-01-05 03:15:00,19.6,0.7,0.00,WSW,245,0.0,0.0,43,0.00,,SKC,0.00,VWS V14.00,2013-01-05 08:15:00,
2013-01-05 03:20:00,19.8,0.9,0.00,WSW,245,0.0,0.0,43,0.00,,SKC,0.00,VWS V14.00,2013-01-05 08:20:00,
2013-01-05 03:25:00,19.8,0.9,0.00,WSW,245,0.0,0.0,43,0.00,,SKC,0.00,VWS V14.00,2013-01-05 08:25:00,
2013-01-05 03:30:00,19.6,0.7,0.00,WSW,245,0.0,0.0,43,0.00,,SKC,0.00,VWS V14.00,2013-01-05 08:30:00,
2013-01-05 03:35:00,19.8,0.9,0.00,WSW,245,0.0,0.0,43,0.00,,SKC,0.00,VWS V14.00,2013-01-05 08:35:00,
2013-01-05 03:40:00,19.6,0.7,0.00,WSW,245,0.0,0.0,43,0.00,,SKC,0.00,VWS V14.00,2013-01-05 08:40:00,
2013-01-05 03:45:00,19.2,0.4,0.00,WSW,245,0.0,0.0,43,0.00,,SKC,0.00,VWS V14.00,2013-01-05 08:45:00,
2013-01-05 03:50:00,18.3,-0.4,0.00,WSW,245,0.0,0.0,43,0.00,,SKC,0.00,VWS V14.00,2013-01-05 08:50:00,
2013-01-05 03:55:00,18.1,-0.6,0.00,WSW,245,0.0,0.0,43,0.00,,SKC,0.00,VWS V14.00,2013-01-05 08:55:00,
2013-01-05 04:00:00,19.0,0.2,0.00,WSW,245,0.0,0.0,43,0.00,,SKC,0.00,VWS V14.00,2013-01-05 09:00:00,
2013-01-05 04:05:00,19.2,0.4,0.00,WSW,245,0.0,0.0,43,0.00,,SKC,0.00,VWS V14.00,2013-01-05 09:05:00,
2013-01-05 04:10:00,19.2,0.4,0.00,WSW,245,0.0,0.0,43,0.00,,SKC,0.00,VWS V14.00,2013-01-05 09:10:00,
2013-01-05 04:15:00,18.9,0.1,0.00,WSW,245,0.0,0.0,43,0.00,,SKC,0.00,VWS V14.00,2013-01-05 09:15:00,
2013-01-05 04:20:00,18.3,-0.4,0.00,WSW,245,0.0,0.0,43,0.00,,SKC,0.00,VWS V14.00,2013-01-05 09:20:00,
2013-01-05 04:25:00,18.7,-0.1,0.00,WSW,245,0.0,0.0,43,0.00,,SKC,0.00,VWS V14.00,2013-01-05 09:25:00,
2013-01-05 04:30:00,19.0,0.2,0.00,WSW,245,0.0,0.0,43,0.00,,SKC,0.00,VWS V14.00,2013-01-05 09:30:00,
2013-01-05 04:35:00,18.9,0.1,0.00,WSW,245,0.0,0.0,43,0.00,,SKC,0.00,VWS V14.00,2013-01-05 09:35:00,
2013-01-05 04:40:00,19.0,0.2,0.00,WSW,245,0.0,0.0,43,0.00,,SKC,0.00,VWS V14.00,2013-01-05 09:40:00,
2013-01-05 04:45:00,18.7,-0.1,0.00,WSW,245,0.0,0.0,43,0.00,,SKC,0.00,VWS V14.00,2013-01-05 09:45:00,
2013-01-05 04:50:00,18.5,-0.3,0.00,WSW,245,0.0,0.0,43,0.00,,SKC,0.00,VWS V14.00,2013-01-05 09:50:00,
2013-01-05 04:55:00,18.3,-0.4,0.00,WSW,245,0.0,0.0,43,0.00,,SKC,0.00,VWS V14.00,2013-01-05 09:55:00,
2013-01-05 05:00:00,19.0,0.2,0.00,WSW,245,0.0,0.0,43,0.00,,SKC,0.00,VWS V14.00,2013-01-05 10:00:00,
2013-01-05 05:05:00,19.6,0.7,0.00,WSW,245,0.0,0.0,43,0.00,,SKC,0.00,VWS V14.00,2013-01-05 10:05:00,
2013-01-05 05:10:00,19.9,1.1,0.00,SW,232,0.0,0.0,43,0.00,,SKC,0.00,VWS V14.00,2013-01-05 10:10:00,
2013-01-05 05:15:00,19.9,1.1,0.00,SW,232,0.0,0.0,43,0.00,,SKC,0.00,VWS V14.00,2013-01-05 10:15:00,
2013-01-05 05:20:00,19.9,1.1,0.00,SW,231,0.0,0.0,43,0.00,,SKC,0.00,VWS V14.00,2013-01-05 10:20:00,
2013-01-05 05:25:00,19.6,0.7,0.00,SW,231,0.0,0.0,43,0.00,,SKC,0.00,VWS V14.00,2013-01-05 10:25:00,
2013-01-05 05:30:00,19.6,0.7,0.00,SW,231,0.0,0.0,43,0.00,,SKC,0.00,VWS V14.00,2013-01-05 10:30:00,
2013-01-05 05:35:00,19.6,0.7,0.00,SW,231,0.0,0.0,43,0.00,,SKC,0.00,VWS V14.00,2013-01-05 10:35:00,
2013-01-05 05:40:00,19.9,1.1,0.00,SW,224,0.0,0.0,43,0.00,,SKC,0.00,VWS V14.00,2013-01-05 10:40:00,
2013-01-05 05:45:00,20.1,1.2,0.00,SW,224,0.0,0.0,43,0.00,,SKC,0.00,VWS V14.00,2013-01-05 10:45:00,
2013-01-05 05:50:00,19.9,1.1,0.00,SW,224,0.0,0.0,43,0.00,,SKC,0.00,VWS V14.00,2013-01-05 10:50:00,
2013-01-05 05:55:00,19.9,1.1,0.00,SSW,199,0.0,0.0,43,0.00,,SKC,0.00,VWS V14.00,2013-01-05 10:55:00,
2013-01-05 06:00:00,19.8,0.9,0.00,SSW,200,0.0,0.0,43,0.00,,SKC,0.00,VWS V14.00,2013-01-05 11:00:00,
2013-01-05 06:05:00,19.4,0.6,0.00,SSW,200,0.0,0.0,43,0.00,,SKC,0.00,VWS V14.00,2013-01-05 11:05:00,
2013-01-05 06:10:00,19.2,0.4,0.00,SSW,200,0.0,0.0,43,0.00,,SKC,0.00,VWS V14.00,2013-01-05 11:10:00,
2013-01-05 06:15:00,19.0,0.2,0.00,SSW,200,0.0,0.0,43,0.00,,SKC,0.00,VWS V14.00,2013-01-05 11:15:00,
2013-01-05 06:20:00,19.2,0.4,0.00,SSW,198,0.0,0.0,43,0.00,,SKC,0.00,VWS V14.00,2013-01-05 11:20:00,
2013-01-05 06:25:00,19.8,0.9,0.00,SSW,198,0.0,0.0,43,0.00,,SKC,0.00,VWS V14.00,2013-01-05 11:25:00,
2013-01-05 06:30:00,19.9,1.1,0.00,SSW,198,0.0,0.0,43,0.00,,SKC,0.00,VWS V14.00,2013-01-05 11:30:00,
2013-01-05 06:35:00,19.9,1.1,0.00,SSW,198,0.0,0.0,43,0.00,,SKC,0.00,VWS V14.00,2013-01-05 11:35:00,
2013-01-05 06:40:00,19.9,1.1,0.00,SSW,198,0.0,0.0,43,0.00,,SKC,0.00,VWS V14.00,2013-01-05 11:40:00,
2013-01-05 06:45:00,19.9,1.1,0.00,SSW,198,0.0,0.0,43,0.00,,SKC,0.00,VWS V14.00,2013-01-05 11:45:00,
2013-01-05 06:50:00,20.5,1.5,0.00,SSW,198,0.0,0.0,43,0.00,,SKC,0.00,VWS V14.00,2013-01-05 11:50:00,
2013-01-05 06:55:00,21.0,2.0,0.00,SSW,198,0.0,0.0,43,0.00,,SKC,0.00,VWS V14.00,2013-01-05 11:55:00,
2013-01-05 07:00:00,21.2,2.2,0.00,South,180,2.7,2.7,43,0.00,,SKC,0.00,VWS V14.00,2013-01-05 12:00:00,
2013-01-05 07:05:00,21.2,2.2,0.00,South,180,2.7,2.7,43,0.00,,SKC,0.00,VWS V14.00,2013-01-05 12:05:00,
2013-01-05 07:10:00,21.2,2.2,0.00,SE,138,2.7,3.6,43,0.00,,SKC,0.00,VWS V14.00,2013-01-05 12:10:00,
2013-01-05 07:15:00,21.0,2.0,0.00,SE,138,2.2,3.6,43,0.00,,SKC,0.00,VWS V14.00,2013-01-05 12:15:00,
2013-01-05 07:20:00,20.5,1.5,0.00,SE,138,0.0,3.6,43,0.00,,SKC,0.00,VWS V14.00,2013-01-05 12:20:00,
2013-01-05 07:25:00,20.7,1.7,0.00,SE,138,0.0,3.6,43,0.00,,SKC,0.00,VWS V14.00,2013-01-05 12:25:00,
2013-01-05 07:30:00,20.7,1.7,0.00,SE,138,0.0,3.6,43,0.00,,SKC,0.00,VWS V14.00,2013-01-05 12:30:00,
2013-01-05 07:35:00,20.7,1.7,0.00,SE,138,0.0,3.6,43,0.00,,SKC,0.00,VWS V14.00,2013-01-05 12:35:00,
2013-01-05 07:40:00,21.2,2.2,0.00,SE,138,3.1,3.6,43,0.00,,SKC,0.00,VWS V14.00,2013-01-05 12:40:00,
2013-01-05 07:45:00,21.2,2.2,0.00,SE,138,0.0,3.6,43,0.00,,SKC,0.00,VWS V14.00,2013-01-05 12:45:00,
2013-01-05 07:50:00,21.4,2.4,0.00,SE,138,0.0,3.6,43,0.00,,SKC,0.00,VWS V14.00,2013-01-05 12:50:00,
2013-01-05 07:55:00,21.2,2.2,0.00,SE,138,0.0,3.6,43,0.00,,SKC,0.00,VWS V14.00,2013-01-05 12:55:00,
2013-01-05 08:00:00,20.7,1.7,0.00,SE,138,0.0,0.0,43,0.00,,SKC,0.00,VWS V14.00,2013-01-05 13:00:00,
2013-01-05 08:05:00,21.2,2.2,0.00,SE,138,0.0,0.0,43,0.00,,SKC,0.00,VWS V14.00,2013-01-05 13:05:00,
2013-01-05 08:10:00,21.2,2.2,0.00,SE,138,2.7,3.1,43,0.00,,SKC,0.00,VWS V14.00,2013-01-05 13:10:00,
2013-01-05 08:15:00,21.4,2.4,0.00,SE,138,0.0,3.1,43,0.00,,SKC,0.00,VWS V14.00,2013-01-05 13:15:00,
2013-01-05 08:20:00,21.7,2.7,0.00,SE,138,2.7,3.6,43,0.00,,SKC,0.00,VWS V14.00,2013-01-05 13:20:00,
2013-01-05 08:25:00,21.9,2.9,0.00,SE,138,2.7,3.6,43,0.00,,SKC,0.00,VWS V14.00,2013-01-05 13:25:00,
2013-01-05 08:30:00,22.1,3.0,0.00,SE,138,0.0,3.6,43,0.00,,SKC,0.00,VWS V14.00,2013-01-05 13:30:00,
2013-01-05 08:35:00,22.3,3.2,0.00,SE,138,0.0,3.6,43,0.00,,SKC,0.00,VWS V14.00,2013-01-05 13:35:00,
2013-01-05 08:40:00,22.8,3.7,0.00,SE,138,0.0,3.6,43,0.00,,SKC,0.00,VWS V14.00,2013-01-05 13:40:00,
2013-01-05 08:45:00,23.4,3.7,0.00,SE,138,0.0,3.6,42,0.00,,SKC,0.00,VWS V14.00,2013-01-05 13:45:00,
2013-01-05 08:50:00,24.1,4.3,0.00,SE,138,2.7,3.6,42,0.00,,SKC,0.00,VWS V14.00,2013-01-05 13:50:00,
2013-01-05 08:55:00,25.3,5.5,0.00,SE,134,2.7,3.6,42,0.00,,SKC,0.00,VWS V14.00,2013-01-05 13:55:00,
2013-01-05 09:00:00,26.6,6.6,0.00,SE,145,0.0,0.0,42,0.00,,SKC,0.00,VWS V14.00,2013-01-05 14:00:00,
2013-01-05 09:05:00,27.0,6.9,0.00,SSE,159,3.1,4.0,42,0.00,,SKC,0.00,VWS V14.00,2013-01-05 14:05:00,
2013-01-05 09:10:00,27.0,6.9,0.00,SSE,160,2.7,4.0,42,0.00,,SKC,0.00,VWS V14.00,2013-01-05 14:10:00,
2013-01-05 09:15:00,27.3,7.3,0.00,SSE,155,2.7,4.9,42,0.00,,SKC,0.00,VWS V14.00,2013-01-05 14:15:00,
2013-01-05 09:20:00,27.9,7.8,0.00,SSE,156,3.6,4.9,42,0.00,,SKC,0.00,VWS V14.00,2013-01-05 14:20:00,
2013-01-05 09:25:00,28.0,7.9,0.00,SE,145,2.7,5.8,42,0.00,,SKC,0.00,VWS V14.00,2013-01-05 14:25:00,
2013-01-05 09:30:00,28.6,7.9,0.00,SSE,160,2.7,5.8,41,0.00,,SKC,0.00,VWS V14.00,2013-01-05 14:30:00,
2013-01-05 09:35:00,28.9,8.2,0.00,SE,144,2.7,5.8,41,0.00,,SKC,0.00,VWS V14.00,2013-01-05 14:35:00,
2013-01-05 09:40:00,28.8,8.0,0.00,SSE,162,3.1,5.8,41,0.00,,SKC,0.00,VWS V14.00,2013-01-05 14:40:00,
2013-01-05 09:45:00,28.4,7.7,0.00,SE,139,3.1,6.3,41,0.00,,SKC,0.00,VWS V14.00,2013-01-05 14:45:00,
2013-01-05 09:50:00,28.6,7.9,0.00,SE,134,2.7,6.3,41,0.00,,SKC,0.00,VWS V14.00,2013-01-05 14:50:00,
2013-01-05 09:55:00,28.6,7.9,0.00,South,181,3.1,6.3,41,0.00,,SKC,0.00,VWS V14.00,2013-01-05 14:55:00,
2013-01-05 10:00:00,29.1,8.4,0.00,SSW,196,2.2,6.3,41,0.00,,SKC,0.00,VWS V14.00,2013-01-05 15:00:00,
2013-01-05 10:05:00,29.5,8.7,0.00,South,179,0.0,4.0,41,0.00,,SKC,0.00,VWS V14.00,2013-01-05 15:05:00,
2013-01-05 10:10:00,29.8,9.0,0.00,SW,219,2.7,4.0,41,0.00,,SKC,0.00,VWS V14.00,2013-01-05 15:10:00,
2013-01-05 10:15:00,30.2,9.4,0.00,SSE,153,2.2,4.9,41,0.00,,SKC,0.00,VWS V14.00,2013-01-05 15:15:00,
2013-01-05 10:20:00,30.2,9.4,0.00,SSE,153,2.7,4.9,41,0.00,,SKC,0.00,VWS V14.00,2013-01-05 15:20:00,
2013-01-05 10:25:00,30.0,9.2,0.00,SSE,165,2.7,4.9,41,0.00,,SKC,0.00,VWS V14.00,2013-01-05 15:25:00,
2013-01-05 10:30:00,31.3,10.3,0.00,SSE,147,3.6,4.9,41,0.00,,SKC,0.00,VWS V14.00,2013-01-05 15:30:00,
2013-01-05 10:35:00,32.7,11.6,0.00,SSW,212,3.6,4.9,41,0.00,,SKC,0.00,VWS V14.00,2013-01-05 15:35:00,
2013-01-05 10:40:00,32.7,11.6,0.00,SSW,208,2.7,4.9,41,0.00,,SKC,0.00,VWS V14.00,2013-01-05 15:40:00,
2013-01-05 10:45:00,32.7,11.6,0.00,SSE,149,3.1,4.9,41,0.00,,SKC,0.00,VWS V14.00,2013-01-05 15:45:00,
2013-01-05 10:50:00,33.3,12.1,0.00,ESE,120,3.6,4.9,41,0.00,,SKC,0.00,VWS V14.00,2013-01-05 15:50:00,
2013-01-05 10:55:00,35.1,13.2,0.00,SE,143,2.7,5.4,40,0.00,,SKC,0.00,VWS V14.00,2013-01-05 15:55:00,
2013-01-05 11:00:00,35.4,13.5,0.00,SE,145,3.6,3.6,40,0.00,,SKC,0.00,VWS V14.00,2013-01-05 16:00:00,
2013-01-05 11:05:00,34.5,12.7,0.00,SE,141,3.6,5.8,40,0.00,,SKC,0.00,VWS V14.00,2013-01-05 16:05:00,
2013-01-05 11:10:00,34.3,12.5,0.00,SSW,197,2.7,5.8,40,0.00,,SKC,0.00,VWS V14.00,2013-01-05 16:10:00,
2013-01-05 11:15:00,34.5,12.7,0.00,South,187,3.6,5.8,40,0.00,,SKC,0.00,VWS V14.00,2013-01-05 16:15:00,
2013-01-05 11:20:00,35.8,13.8,0.00,South,182,4.0,5.8,40,0.00,,SKC,0.00,VWS V14.00,2013-01-05 16:20:00,
2013-01-05 11:25:00,37.6,14.9,0.00,SSW,211,3.6,6.3,39,0.00,,SKC,0.00,VWS V14.00,2013-01-05 16:25:00,
2013-01-05 11:30:00,39.4,16.5,0.00,SSE,167,5.4,6.3,39,0.00,,SKC,0.00,VWS V14.00,2013-01-05 16:30:00,
2013-01-05 11:35:00,38.5,15.7,0.00,SSW,194,4.9,6.3,39,0.00,,SKC,0.00,VWS V14.00,2013-01-05 16:35:00,
2013-01-05 11:40:00,40.1,17.1,0.00,South,176,4.9,7.6,39,0.00,,SKC,0.00,VWS V14.00,2013-01-05 16:40:00,
2013-01-05 11:45:00,40.3,17.3,0.00,South,179,4.9,8.7,39,0.00,,SKC,0.00,VWS V14.00,2013-01-05 16:45:00,
2013-01-05 11:50:00,39.7,16.8,0.00,SSE,157,4.0,8.7,39,0.00,,SKC,0.00,VWS V14.00,2013-01-05 16:50:00,
2013-01-05 11:55:00,39.9,17.0,0.00,SSW,194,3.1,8.7,39,0.00,,SKC,0.00,VWS V14.00,2013-01-05 16:55:00,
2013-01-05 12:00:00,40.5,17.5,0.00,South,169,3.6,5.4,39,0.00,,SKC,0.00,VWS V14.00,2013-01-05 17:00:00,
2013-01-05 12:05:00,41.0,17.4,0.00,South,170,4.0,5.8,38,0.00,,SKC,0.00,VWS V14.00,2013-01-05 17:05:00,
2013-01-05 12:10:00,42.3,18.5,0.00,SSE,156,4.9,6.3,38,0.00,,SKC,0.00,VWS V14.00,2013-01-05 17:10:00,
2013-01-05 12:15:00,43.7,19.8,0.00,South,191,5.4,6.3,38,0.00,,SKC,0.00,VWS V14.00,2013-01-05 17:15:00,
2013-01-05 12:20:00,44.6,20.6,0.00,SSE,150,4.9,7.2,38,0.00,,SKC,0.00,VWS V14.00,2013-01-05 17:20:00,
2013-01-05 12:25:00,46.8,21.9,0.00,South,178,3.6,7.2,37,0.00,,SKC,0.00,VWS V14.00,2013-01-05 17:25:00,
2013-01-05 12:30:00,47.3,22.4,0.00,SSW,196,5.4,7.2,37,0.00,,SKC,0.00,VWS V14.00,2013-01-05 17:30:00,
2013-01-05 12:35:00,45.3,21.2,0.00,SSW,205,3.6,7.2,38,0.00,,SKC,0.00,VWS V14.00,2013-01-05 17:35:00,
2013-01-05 12:40:00,46.0,21.9,0.00,SSE,163,4.9,7.2,38,0.00,,SKC,0.00,VWS V14.00,2013-01-05 17:40:00,
2013-01-05 12:45:00,45.3,21.2,0.00,SSW,208,3.1,7.6,38,0.04,,SKC,0.04,VWS V14.00,2013-01-05 17:45:00,
2013-01-05 12:50:00,43.7,19.8,0.00,SW,215,4.9,8.3,38,0.04,,SKC,0.04,VWS V14.00,2013-01-05 17:50:00,
2013-01-05 12:55:00,43.0,19.1,0.00,SSE,157,5.8,8.3,38,0.04,,SKC,0.04,VWS V14.00,2013-01-05 17:55:00,
2013-01-05 13:00:00,44.1,20.1,0.00,SSW,205,5.8,8.3,38,0.04,,SKC,0.04,VWS V14.00,2013-01-05 18:00:00,
2013-01-05 13:05:00,44.4,20.4,0.00,SSE,163,6.3,8.1,38,0.04,,SKC,0.04,VWS V14.00,2013-01-05 18:05:00,
2013-01-05 13:10:00,45.1,21.1,0.00,SSE,153,5.4,8.1,38,0.04,,SKC,0.04,VWS V14.00,2013-01-05 18:10:00,
2013-01-05 13:15:00,46.0,21.9,0.00,SSE,158,5.8,8.1,38,0.04,,SKC,0.04,VWS V14.00,2013-01-05 18:15:00,
2013-01-05 13:20:00,45.5,21.4,0.00,SSW,213,5.8,8.3,38,0.04,,SKC,0.04,VWS V14.00,2013-01-05 18:20:00,
2013-01-05 13:25:00,47.5,22.5,0.00,South,171,4.0,8.3,37,0.04,,SKC,0.04,VWS V14.00,2013-01-05 18:25:00,
2013-01-05 13:30:00,48.6,23.5,0.00,SSW,204,6.3,8.3,37,0.04,,SKC,0.04,VWS V14.00,2013-01-05 18:30:00,
2013-01-05 13:35:00,45.0,20.9,0.00,WSW,244,8.1,8.7,38,0.04,,SKC,0.04,VWS V14.00,2013-01-05 18:35:00,
2013-01-05 13:40:00,42.6,18.8,0.00,SSW,194,7.2,8.7,38,0.04,,SKC,0.04,VWS V14.00,2013-01-05 18:40:00,
2013-01-05 13:45:00,42.8,19.0,0.00,WSW,238,5.8,8.7,38,0.04,,SKC,0.04,VWS V14.00,2013-01-05 18:45:00,
2013-01-05 13:50:00,42.8,19.0,0.00,SW,223,2.7,8.7,38,0.04,,SKC,0.04,VWS V14.00,2013-01-05 18:50:00,
2013-01-05 13:55:00,42.3,18.5,0.00,WNW,283,4.0,8.7,38,0.04,,SKC,0.04,VWS V14.00,2013-01-05 18:55:00,
2013-01-05 14:00:00,42.3,18.5,0.00,SSW,211,3.1,8.7,38,0.08,,SKC,0.00,VWS V14.00,2013-01-05 19:00:00,
2013-01-05 14:05:00,42.4,18.6,0.00,WSW,239,2.7,5.8,38,0.04,,SKC,0.08,VWS V14.00,2013-01-05 19:05:00,
2013-01-05 14:10:00,43.0,19.1,0.00,WNW,285,3.6,6.3,38,0.04,,SKC,0.08,VWS V14.00,2013-01-05 19:10:00,
2013-01-05 14:15:00,43.3,19.5,0.00,SSW,200,6.3,6.7,38,0.04,,SKC,0.08,VWS V14.00,2013-01-05 19:15:00,
2013-01-05 14:20:00,42.8,19.0,0.00,South,190,3.6,6.7,38,0.04,,SKC,0.08,VWS V14.00,2013-01-05 19:20:00,
2013-01-05 14:25:00,41.5,17.8,0.00,WSW,243,4.0,6.7,38,0.04,,SKC,0.08,VWS V14.00,2013-01-05 19:25:00,
2013-01-05 14:30:00,41.2,17.5,0.00,SSW,193,3.6,8.1,38,0.04,,SKC,0.08,VWS V14.00,2013-01-05 19:30:00,
2013-01-05 14:35:00,41.0,17.4,0.00,WSW,257,5.4,8.1,38,0.04,,SKC,0.08,VWS V14.00,2013-01-05 19:35:00,
2013-01-05 14:40:00,40.3,17.3,0.00,West,277,7.6,8.7,39,0.04,,SKC,0.08,VWS V14.00,2013-01-05 19:40:00,
2013-01-05 14:45:00,39.9,17.0,0.00,WNW,293,8.1,10.1,39,0.04,,SKC,0.08,VWS V14.00,2013-01-05 19:45:00,
2013-01-05 14:50:00,39.7,16.8,0.00,West,277,6.3,10.1,39,0.04,,SKC,0.08,VWS V14.00,2013-01-05 19:50:00,
2013-01-05 14:55:00,39.7,16.8,0.00,West,261,6.7,10.1,39,0.04,,SKC,0.08,VWS V14.00,2013-01-05 19:55:00,
2013-01-05 15:00:00,39.6,16.7,0.00,WNW,287,3.1,10.1,39,0.04,,SKC,0.08,VWS V14.00,2013-01-05 20:00:00,
2013-01-05 15:05:00,39.4,16.5,0.00,WSW,239,3.1,8.7,39,0.00,,SKC,0.08,VWS V14.00,2013-01-05 20:05:00,
2013-01-05 15:10:00,39.2,16.3,0.00,West,269,2.7,8.7,39,0.00,,SKC,0.08,VWS V14.00,2013-01-05 20:10:00,
2013-01-05 15:14:00,39.0,16.2,0.00,SW,231,3.1,8.7,39,0.00,,SKC,0.08,VWS V14.00,2013-01-05 20:14:00,
2013-01-05 15:19:00,39.0,16.2,0.00,WSW,253,4.9,8.7,39,0.00,,SKC,0.08,VWS V14.00,2013-01-05 20:19:00,
2013-01-05 15:24:00,38.8,16.0,0.00,WSW,257,4.0,8.7,39,0.00,,SKC,0.08,VWS V14.00,2013-01-05 20:24:00,
2013-01-05 15:29:00,38.8,16.0,0.00,West,260,2.7,8.7,39,0.00,,SKC,0.08,VWS V14.00,2013-01-05 20:29:00,
2013-01-05 15:34:00,39.2,16.3,0.00,WSW,255,3.1,8.7,39,0.00,,SKC,0.08,VWS V14.00,2013-01-05 20:34:00,
2013-01-05 15:39:00,39.4,16.5,0.00,West,260,3.6,8.7,39,0.00,,SKC,0.08,VWS V14.00,2013-01-05 20:39:00,
2013-01-05 15:44:00,39.2,16.3,0.00,SW,225,2.7,8.7,39,0.00,,SKC,0.08,VWS V14.00,2013-01-05 20:44:00,
2013-01-05 15:49:00,39.0,16.2,0.00,WSW,250,3.6,8.7,39,0.00,,SKC,0.08,VWS V14.00,2013-01-05 20:49:00,
2013-01-05 15:54:00,38.8,16.0,0.00,South,186,5.4,8.7,39,0.00,,SKC,0.08,VWS V14.00,2013-01-05 20:54:00,
2013-01-05 15:59:00,38.8,16.0,0.00,SSE,162,3.6,8.7,39,0.00,,SKC,0.08,VWS V14.00,2013-01-05 20:59:00,
2013-01-05 16:04:00,38.7,15.9,0.00,SSW,196,3.1,7.6,39,0.00,,SKC,0.08,VWS V14.00,2013-01-05 21:04:00,
2013-01-05 16:09:00,38.1,15.4,0.00,SSW,202,3.1,7.6,39,0.00,,SKC,0.08,VWS V14.00,2013-01-05 21:09:00,
2013-01-05 16:14:00,38.1,15.4,0.00,SSE,164,6.3,7.6,39,0.00,,SKC,0.08,VWS V14.00,2013-01-05 21:14:00,
2013-01-05 16:19:00,38.3,15.5,0.00,SSW,213,3.6,7.6,39,0.00,,SKC,0.08,VWS V14.00,2013-01-05 21:19:00,
2013-01-05 16:24:00,38.1,15.4,0.00,WSW,239,3.6,7.6,39,0.00,,SKC,0.08,VWS V14.00,2013-01-05 21:24:00,
2013-01-05 16:29:00,38.1,15.4,0.00,SSE,168,5.4,7.6,39,0.00,,SKC,0.08,VWS V14.00,2013-01-05 21:29:00,
2013-01-05 16:34:00,37.9,15.2,0.00,SSW,201,4.9,7.6,39,0.00,,SKC,0.08,VWS V14.00,2013-01-05 21:34:00,
2013-01-05 16:39:00,37.6,14.9,0.00,South,187,3.1,7.6,39,0.00,,SKC,0.08,VWS V14.00,2013-01-05 21:39:00,
2013-01-05 16:44:00,37.6,14.9,0.00,South,190,3.6,7.6,39,0.00,,SKC,0.08,VWS V14.00,2013-01-05 21:44:00,
2013-01-05 16:49:00,37.4,14.7,0.00,SSW,199,3.1,7.6,39,0.00,,SKC,0.08,VWS V14.00,2013-01-05 21:49:00,
2013-01-05 16:54:00,37.2,15.1,0.00,SSE,165,3.6,7.6,40,0.00,,SKC,0.08,VWS V14.00,2013-01-05 21:54:00,
2013-01-05 16:59:00,37.0,15.0,0.00,SW,222,3.1,7.6,40,0.00,,SKC,0.08,VWS V14.00,2013-01-05 21:59:00,
2013-01-05 17:04:00,37.0,15.0,0.00,SSW,209,2.7,3.6,40,0.00,,SKC,0.08,VWS V14.00,2013-01-05 22:04:00,
2013-01-05 17:09:00,36.9,14.8,0.00,South,185,3.1,5.4,40,0.00,,SKC,0.08,VWS V14.00,2013-01-05 22:09:00,
2013-01-05 17:14:00,36.9,14.8,0.00,West,261,3.6,5.4,40,0.00,,SKC,0.08,VWS V14.00,2013-01-05 22:14:00,
2013-01-05 17:19:00,36.9,14.8,0.00,SSW,204,2.7,5.8,40,0.00,,SKC,0.08,VWS V14.00,2013-01-05 22:19:00,
2013-01-05 17:24:00,36.7,14.6,0.00,SSW,205,0.0,5.8,40,0.00,,SKC,0.08,VWS V14.00,2013-01-05 22:24:00,
2013-01-05 17:29:00,36.5,14.5,0.00,WSW,238,0.0,5.8,40,0.00,,SKC,0.08,VWS V14.00,2013-01-05 22:29:00,
2013-01-05 17:34:00,36.3,14.3,0.00,West,259,2.2,5.8,40,0.00,,SKC,0.08,VWS V14.00,2013-01-05 22:34:00,
2013-01-05 17:39:00,36.1,14.2,0.00,West,259,0.0,5.8,40,0.00,,SKC,0.08,VWS V14.00,2013-01-05 22:39:00,
2013-01-05 17:44:00,36.1,14.2,0.00,West,259,0.0,5.8,40,0.00,,SKC,0.08,VWS V14.00,2013-01-05 22:44:00,
2013-01-05 17:49:00,36.1,14.2,0.00,West,259,0.0,5.8,40,0.00,,SKC,0.08,VWS V14.00,2013-01-05 22:49:00,
2013-01-05 17:54:00,36.1,14.2,0.00,West,259,2.2,5.8,40,0.00,,SKC,0.08,VWS V14.00,2013-01-05 22:54:00,
2013-01-05 17:59:00,36.0,14.0,0.00,West,259,0.0,5.8,40,0.00,,SKC,0.08,VWS V14.00,2013-01-05 22:59:00,
2013-01-05 18:04:00,35.8,13.8,0.00,West,259,0.0,0.0,40,0.00,,SKC,0.08,VWS V14.00,2013-01-05 23:04:00,
2013-01-05 18:09:00,35.6,13.7,0.00,West,259,0.0,0.0,40,0.00,,SKC,0.08,VWS V14.00,2013-01-05 23:09:00,
2013-01-05 18:14:00,35.4,13.5,0.00,West,259,0.0,0.0,40,0.00,,SKC,0.08,VWS V14.00,2013-01-05 23:14:00,
2013-01-05 18:19:00,35.4,13.5,0.00,West,259,0.0,0.0,40,0.00,,SKC,0.08,VWS V14.00,2013-01-05 23:19:00,
2013-01-05 18:24:00,35.4,13.5,0.00,West,259,0.0,0.0,40,0.00,,SKC,0.08,VWS V14.00,2013-01-05 23:24:00,
2013-01-05 18:29:00,35.4,13.5,0.00,West,259,0.0,0.0,40,0.00,,SKC,0.08,VWS V14.00,2013-01-05 23:29:00,
2013-01-05 18:34:00,35.1,13.2,0.00,SSW,210,2.7,3.6,40,0.00,,SKC,0.08,VWS V14.00,2013-01-05 23:34:00,
2013-01-05 18:39:00,35.2,13.4,0.00,SSW,208,2.2,4.0,40,0.00,,SKC,0.08,VWS V14.00,2013-01-05 23:39:00,
2013-01-05 18:44:00,35.1,13.2,0.00,SSW,205,2.7,4.0,40,0.00,,SKC,0.08,VWS V14.00,2013-01-05 23:44:00,
2013-01-05 18:49:00,34.7,12.9,0.00,SSW,205,0.0,4.0,40,0.00,,SKC,0.08,VWS V14.00,2013-01-05 23:49:00,
2013-01-05 18:54:00,34.3,12.5,0.00,SSW,209,0.0,4.0,40,0.00,,SKC,0.08,VWS V14.00,2013-01-05 23:54:00,
2013-01-05 18:59:00,34.3,12.5,0.00,SW,226,0.0,4.0,40,0.00,,SKC,0.08,VWS V14.00,2013-01-05 23:59:00,
2013-01-05 19:04:00,34.2,12.4,0.00,SW,226,0.0,0.0,40,0.00,,SKC,0.08,VWS V14.00,2013-01-06 00:04:00,
2013-01-05 19:09:00,33.8,12.1,0.00,SW,226,0.0,0.0,40,0.00,,SKC,0.08,VWS V14.00,2013-01-06 00:09:00,
2013-01-05 19:14:00,33.4,11.7,0.00,SW,226,0.0,0.0,40,0.00,,SKC,0.08,VWS V14.00,2013-01-06 00:14:00,
2013-01-05 19:19:00,33.3,11.6,0.00,SW,226,0.0,0.0,40,0.00,,SKC,0.08,VWS V14.00,2013-01-06 00:19:00,
2013-01-05 19:24:00,32.9,11.2,0.00,SW,226,0.0,0.0,40,0.00,,SKC,0.08,VWS V14.00,2013-01-06 00:24:00,
2013-01-05 19:29:00,32.5,10.9,0.00,SW,226,0.0,0.0,40,0.00,,SKC,0.08,VWS V14.00,2013-01-06 00:29:00,
2013-01-05 19:34:00,31.5,9.9,0.00,SW,226,0.0,0.0,40,0.00,,SKC,0.08,VWS V14.00,2013-01-06 00:34:00,
2013-01-05 19:39:00,31.1,9.6,0.00,SW,226,0.0,0.0,40,0.00,,SKC,0.08,VWS V14.00,2013-01-06 00:39:00,
2013-01-05 19:44:00,30.7,9.3,0.00,SW,226,0.0,0.0,40,0.00,,SKC,0.08,VWS V14.00,2013-01-06 00:44:00,
2013-01-05 19:49:00,30.9,9.4,0.00,SW,226,0.0,0.0,40,0.00,,SKC,0.08,VWS V14.00,2013-01-06 00:49:00,
2013-01-05 19:54:00,31.1,9.6,0.00,SW,226,0.0,0.0,40,0.00,,SKC,0.08,VWS V14.00,2013-01-06 00:54:00,
2013-01-05 19:59:00,30.4,9.0,0.00,SW,226,0.0,0.0,40,0.00,,SKC,0.08,VWS V14.00,2013-01-06 00:59:00,
2013-01-05 20:04:00,29.5,8.7,0.00,SW,226,0.0,0.0,41,0.00,,SKC,0.08,VWS V14.00,2013-01-06 01:04:00,
2013-01-05 20:09:00,28.9,8.2,0.00,SW,226,0.0,0.0,41,0.00,,SKC,0.08,VWS V14.00,2013-01-06 01:09:00,
2013-01-05 20:14:00,29.1,8.4,0.00,West,260,2.2,3.1,41,0.00,,SKC,0.08,VWS V14.00,2013-01-06 01:14:00,
2013-01-05 20:19:00,28.6,7.9,0.00,West,260,0.0,3.1,41,0.00,,SKC,0.08,VWS V14.00,2013-01-06 01:19:00,
2013-01-05 20:24:00,28.4,7.7,0.00,West,260,0.0,3.1,41,0.00,,SKC,0.08,VWS V14.00,2013-01-06 01:24:00,
2013-01-05 20:29:00,28.6,7.9,0.00,West,260,0.0,3.1,41,0.00,,SKC,0.08,VWS V14.00,2013-01-06 01:29:00,
2013-01-05 20:34:00,29.1,8.4,0.00,West,260,0.0,3.1,41,0.00,,SKC,0.08,VWS V14.00,2013-01-06 01:34:00,
2013-01-05 20:39:00,29.3,8.5,0.00,West,260,0.0,3.1,41,0.00,,SKC,0.08,VWS V14.00,2013-01-06 01:39:00,
2013-01-05 20:44:00,29.5,8.7,0.00,WSW,258,0.0,3.1,41,0.00,,SKC,0.08,VWS V14.00,2013-01-06 01:44:00,
2013-01-05 20:49:00,29.7,8.9,0.00,WSW,258,0.0,3.1,41,0.00,,SKC,0.08,VWS V14.00,2013-01-06 01:49:00,
2013-01-05 20:54:00,29.7,8.9,0.00,WSW,258,0.0,3.1,41,0.00,,SKC,0.08,VWS V14.00,2013-01-06 01:54:00,
2013-01-05 20:59:00,30.4,9.0,0.00,WSW,258,0.0,3.1,40,0.00,,SKC,0.08,VWS V14.00,2013-01-06 01:59:00,
2013-01-05 21:04:00,31.5,9.9,0.00,WSW,258,0.0,0.0,40,0.00,,SKC,0.08,VWS V14.00,2013-01-06 02:04:00,
2013-01-05 21:09:00,32.0,10.4,0.00,WSW,258,0.0,0.0,40,0.00,,SKC,0.08,VWS V14.00,2013-01-06 02:09:00,
2013-01-05 21:14:00,32.2,10.6,0.00,WSW,256,0.0,0.0,40,0.00,,SKC,0.08,VWS V14.00,2013-01-06 02:14:00,
2013-01-05 21:19:00,32.4,10.8,0.00,WSW,241,0.0,0.0,40,0.00,,SKC,0.08,VWS V14.00,2013-01-06 02:19:00,
2013-01-05 21:24:00,32.2,10.6,0.00,WSW,241,0.0,0.0,40,0.00,,SKC,0.08,VWS V14.00,2013-01-06 02:24:00,
2013-01-05 21:29:00,32.4,10.8,0.00,SSW,208,2.7,3.6,40,0.00,,SKC,0.08,VWS V14.00,2013-01-06 02:29:00,
2013-01-05 21:34:00,32.7,11.1,0.00,SSW,208,2.7,3.6,40,0.00,,SKC,0.08,VWS V14.00,2013-01-06 02:34:00,
2013-01-05 21:39:00,32.5,10.9,0.00,SSW,208,2.2,3.6,40,0.00,,SKC,0.08,VWS V14.00,2013-01-06 02:39:00,
2013-01-05 21:44:00,32.2,10.6,0.00,SSW,208,0.0,3.6,40,0.00,,SKC,0.08,VWS V14.00,2013-01-06 02:44:00,
2013-01-05 21:49:00,31.8,10.3,0.00,SSW,205,0.0,3.6,40,0.00,,SKC,0.08,VWS V14.00,2013-01-06 02:49:00,
2013-01-05 21:54:00,31.6,10.1,0.00,SW,220,2.7,4.0,40,0.00,,SKC,0.08,VWS V14.00,2013-01-06 02:54:00,
2013-01-05 21:59:00,31.6,10.1,0.00,SSW,208,2.7,4.0,40,0.00,,SKC,0.08,VWS V14.00,2013-01-06 02:59:00,
2013-01-05 22:04:00,31.6,10.1,0.00,SSW,204,2.7,4.0,40,0.00,,SKC,0.08,VWS V14.00,2013-01-06 03:04:00,
2013-01-05 22:09:00,32.2,10.6,0.00,WSW,239,2.7,4.9,40,0.00,,SKC,0.08,VWS V14.00,2013-01-06 03:09:00,
2013-01-05 22:14:00,32.5,10.9,0.00,SSW,194,3.1,5.4,40,0.00,,SKC,0.08,VWS V14.00,2013-01-06 03:14:00,
2013-01-05 22:19:00,32.9,11.2,0.00,SSW,207,2.7,5.4,40,0.00,,SKC,0.08,VWS V14.00,2013-01-06 03:19:00,
2013-01-05 22:24:00,33.3,11.6,0.00,SW,223,2.2,5.4,40,0.00,,SKC,0.08,VWS V14.00,2013-01-06 03:24:00,
2013-01-05 22:29:00,33.3,11.6,0.00,SSW,212,2.7,5.4,40,0.00,,SKC,0.08,VWS V14.00,2013-01-06 03:29:00,
2013-01-05 22:34:00,33.4,11.7,0.00,SSW,206,2.2,5.4,40,0.00,,SKC,0.08,VWS V14.00,2013-01-06 03:34:00,
2013-01-05 22:39:00,33.6,11.9,0.00,SSW,205,3.6,5.4,40,0.00,,SKC,0.08,VWS V14.00,2013-01-06 03:39:00,
2013-01-05 22:44:00,33.6,11.9,0.00,SSE,168,3.1,5.4,40,0.00,,SKC,0.08,VWS V14.00,2013-01-06 03:44:00,
2013-01-05 22:49:00,34.0,12.2,0.00,SW,220,2.7,5.8,40,0.00,,SKC,0.08,VWS V14.00,2013-01-06 03:49:00,
2013-01-05 22:54:00,34.2,12.4,0.00,SSW,211,4.5,5.8,40,0.00,,SKC,0.08,VWS V14.00,2013-01-06 03:54:00,
2013-01-05 22:59:00,34.3,12.5,0.00,SW,218,3.1,5.8,40,0.00,,SKC,0.08,VWS V14.00,2013-01-06 03:59:00,
2013-01-05 23:04:00,34.2,12.4,0.00,SSW,201,4.0,4.0,40,0.00,,SKC,0.08,VWS V14.00,2013-01-06 04:04:00,
2013-01-05 23:09:00,34.3,12.5,0.00,South,184,2.7,4.0,40,0.00,,SKC,0.08,VWS V14.00,2013-01-06 04:09:00,
2013-01-05 23:14:00,34.3,12.5,0.00,SW,222,4.0,4.9,40,0.00,,SKC,0.08,VWS V14.00,2013-01-06 04:14:00,
2013-01-05 23:19:00,34.3,12.5,0.00,SSW,203,3.6,4.9,40,0.00,,SKC,0.08,VWS V14.00,2013-01-06 04:19:00,
2013-01-05 23:24:00,34.3,12.5,0.00,SSW,209,3.6,5.4,40,0.00,,SKC,0.08,VWS V14.00,2013-01-06 04:24:00,
2013-01-05 23:29:00,34.3,12.5,0.00,South,182,3.1,5.4,40,0.00,,SKC,0.08,VWS V14.00,2013-01-06 04:29:00,
2013-01-05 23:34:00,34.3,12.5,0.00,SSW,209,0.0,5.4,40,0.00,,SKC,0.08,VWS V14.00,2013-01-06 04:34:00,
2013-01-05 23:39:00,34.5,12.7,0.00,SW,225,2.7,5.4,40,0.00,,SKC,0.08,VWS V14.00,2013-01-06 04:39:00,
2013-01-05 23:44:00,34.5,12.7,0.00,SSW,208,5.8,6.7,40,0.00,,SKC,0.08,VWS V14.00,2013-01-06 04:44:00,
2013-01-05 23:49:00,34.9,13.0,0.00,SSW,200,2.2,6.7,40,0.00,,SKC,0.08,VWS V14.00,2013-01-06 04:49:00,
2013-01-05 23:54:00,34.9,13.0,0.00,SW,217,2.7,6.7,40,0.00,,SKC,0.08,VWS V14.00,2013-01-06 04:54:00,
2013-01-05 23:59:00,34.9,13.0,0.00,South,191,3.1,6.7,40,0.00,,SKC,0.08,VWS V14.00,2013-01-06 04:59:00,